Wind_Speed
6 6 7 7 8 10 12 12 13 12 13 13 12 14 13 13 14 14 13 14 15 16 17 19 20 21 22 22 23 23 24 25 25 25 26 27 28 29 29 30 30 30 31 32
4 5 5 6 7 8 9 11 12 12 12 12 12 13 12 12 12 12 12 13 14 16 17 18 19 21 22 22 23 24 24 25 25 26 27 27 28 28 29 29 30 30 31 31
2 2 3 4 6 7 8 8 9 10 10 11 11 10 10 9 10 12 13 14 16 17 18 19 20 20 21 22 23 23 24 24 25 25 26 27 27 27 28 28 28 28 28 29
2 2 3 4 5 6 6 7 8 8 8 8 9 9 9 9 10 11 13 14 15 16 17 18 20 20 21 21 21 21 22 22 23 23 24 24 25 25 25 26 27 27 28 29
2 3 3 3 4 5 6 6 6 7 7 8 8 9 10 10 11 12 14 14 15 16 17 18 19 19 19 19 20 20 21 21 21 22 22 23 23 24 24 25 25 26 27 27
2 3 3 4 4 5 5 6 6 6 6 7 7 9 9 10 12 12 13 13 14 15 16 17 18 18 19 19 19 20 20 20 21 21 21 22 22 22 23 23 23 23 24 24
2 2 3 4 5 5 5 6 6 6 6 6 7 7 8 9 10 11 11 12 13 14 15 16 16 17 18 18 19 19 19 19 20 20 20 20 21 21 21 21 21 21 20 19
2 3 4 5 5 5 6 7 6 6 6 6 6 6 6 6 7 8 9 10 11 12 13 13 14 15 15 16 17 17 18 18 18 18 19 19 19 19 19 18 18 17 17 17
3 4 5 5 5 6 6 7 7 7 6 6 5 5 5 6 6 7 8 9 9 10 11 12 12 13 14 15 15 15 16 16 17 17 17 17 17 17 17 16 16 15 15 15
4 5 6 6 6 6 7 8 7 7 7 6 6 6 5 6 6 7 7 8 9 10 11 11 12 13 14 14 15 15 15 15 15 15 15 15 16 16 15 14 14 14 13 13
6 7 8 8 9 9 9 9 9 8 8 7 7 7 7 6 6 6 7 7 8 9 10 11 11 12 13 13 14 14 15 15 15 14 14 14 14 13 13 13 12 12 11 11
7 8 9 9 10 11 11 11 11 10 10 10 9 9 8 7 7 7 7 7 7 8 8 9 10 11 12 12 13 13 13 13 13 13 12 12 11 11 11 10 10 10 9 9
8 8 9 10 11 11 12 12 12 12 12 11 11 11 10 9 9 9 9 8 8 7 8 9 10 10 11 11 10 10 11 11 10 10 10 9 9 8 8 8 8 7 7 7
8 8 9 10 11 12 13 13 14 13 13 13 13 12 12 11 11 10 10 10 9 8 8 8 8 9 9 8 8 8 8 7 6 6 6 6 5 5 5 5 5 5 5 5
8 9 10 11 12 13 13 14 14 14 14 14 14 14 13 13 12 12 12 12 11 10 10 10 9 9 8 7 6 6 5 4 4 4 4 4 4 3 3 4 4 4 4 4
9 9 10 12 12 13 14 15 15 15 15 15 15 15 15 15 14 14 14 13 13 12 12 12 11 11 9 8 7 6 5 4 4 4 4 4 4 4 4 4 4 4 4 5
9 10 11 12 13 14 15 15 16 16 16 16 16 16 16 16 15 15 15 15 15 15 14 14 13 13 12 11 10 9 8 7 6 6 6 6 5 5 5 5 5 6 6 6
10 10 11 12 13 14 15 15 16 16 16 17 17 17 17 17 17 17 17 16 16 16 16 15 15 15 14 14 12 11 10 10 9 9 8 8 8 7 7 7 7 7 7 8
10 10 11 12 13 14 15 15 16 16 17 17 18 18 18 18 18 18 18 18 17 17 17 17 16 16 16 15 14 14 13 12 12 11 10 9 9 9 9 9 9 9 9 10
10 10 10 11 12 14 15 15 16 16 16 17 17 18 18 18 19 19 19 19 18 18 18 18 18 17 16 16 15 15 15 14 13 12 11 11 10 10 10 10 10 10 10 11
10 10 10 10 11 13 14 15 15 16 16 16 17 17 18 18 19 20 20 19 19 18 18 18 18 18 18 17 17 17 16 15 14 14 13 12 11 11 11 11 11 11 11 11
10 9 9 9 10 11 13 14 14 15 15 16 16 16 17 18 18 19 19 19 19 19 19 19 19 18 18 18 18 17 17 16 15 15 14 13 12 12 12 12 12 12 12 12
10 9 8 8 8 9 11 12 13 14 14 15 15 16 16 17 18 18 18 19 19 18 18 18 19 18 18 17 17 17 17 16 16 15 14 14 13 13 12 12 12 12 12 12
11 9 7 6 7 7 9 10 11 13 13 14 14 15 15 16 16 17 17 17 17 17 17 17 18 18 18 17 17 17 16 16 16 15 15 14 14 13 13 13 13 12 12 12
12 9 7 6 5 6 7 8 10 11 12 13 13 13 14 14 14 15 15 16 16 16 16 16 16 16 16 16 16 16 15 15 15 14 14 14 14 14 13 13 13 13 12 12
13 11 8 5 3 3 5 6 8 9 10 11 12 12 13 13 13 13 14 14 15 15 15 15 15 15 15 14 14 14 14 13 13 13 13 13 12 12 12 12 12 12 12 11
14 12 9 6 3 1 2 4 6 7 9 10 10 11 11 12 12 12 12 13 13 13 13 13 13 13 13 13 13 13 13 12 12 12 12 12 11 11 11 11 11 11 10 11
Wind_Direction
273 258 249 245 248 250 253 257 258 263 267 268 269 269 268 265 267 269 264 254 250 248 247 246 249 254 257 259 261 262 264 266 270 272 273 274 275 276 278 280 280 281 282 284
276 262 256 257 260 258 261 261 259 262 269 272 273 272 270 268 265 261 256 252 253 254 254 252 253 257 261 264 265 266 268 270 271 272 274 275 276 278 280 280 281 283 284 285
302 288 277 275 275 272 272 272 265 268 274 274 274 271 266 263 258 256 254 256 257 258 258 258 260 262 264 266 267 269 270 270 271 273 275 277 279 280 281 283 284 285 285 286
314 296 285 298 287 282 283 286 281 276 277 273 271 269 269 270 269 261 257 258 260 260 260 262 264 266 267 268 269 271 271 273 275 277 279 280 281 282 283 284 285 285 286 288
282 288 298 311 309 305 304 307 302 293 287 279 274 271 268 268 268 262 258 260 264 263 264 266 267 268 269 271 272 274 275 276 277 278 280 282 283 284 285 285 286 288 288 289
311 310 314 327 329 323 321 326 322 308 299 292 286 281 276 271 270 269 267 266 267 267 268 269 270 271 273 274 275 276 276 277 279 280 282 284 285 286 287 288 289 291 291 292
351 357 1 358 354 342 337 336 334 329 322 313 305 292 280 273 269 271 272 269 270 272 274 274 275 275 276 277 277 277 277 278 280 281 283 284 285 287 289 291 293 293 293 294
40 28 13 8 4 358 354 353 354 348 337 325 316 306 300 287 277 279 279 276 276 281 282 282 281 279 279 279 278 277 278 280 281 282 283 285 286 288 289 292 294 295 296 296
48 38 27 20 16 10 5 4 7 8 1 349 338 328 319 311 299 292 290 287 288 288 287 284 282 282 284 283 283 283 284 286 287 287 286 285 286 288 290 293 294 296 298 297
63 53 44 36 29 25 19 19 20 17 12 6 357 347 340 333 321 312 303 297 293 291 289 286 284 286 286 287 285 285 286 288 289 288 288 287 287 288 289 291 293 297 299 300
71 60 52 46 39 36 36 35 33 29 26 24 17 10 1 353 345 337 327 316 308 301 297 294 293 293 292 291 288 288 288 289 289 290 291 289 288 288 289 291 293 297 299 300
75 65 57 51 48 46 44 43 41 39 37 34 30 24 18 13 7 358 346 334 324 317 310 306 304 301 298 296 294 293 290 289 289 289 292 292 291 291 292 292 293 296 298 303
78 68 62 57 54 51 48 46 45 43 40 37 34 31 29 27 22 14 6 356 345 333 323 318 314 310 307 304 301 300 299 295 293 293 296 298 297 297 297 297 298 300 304 309
84 73 67 62 57 54 51 49 47 46 43 41 38 36 34 32 27 22 16 10 6 1 354 345 337 329 322 317 313 313 314 312 310 308 308 310 312 314 315 316 318 318 320 322
88 77 72 67 61 57 54 51 49 47 45 44 43 40 37 34 31 28 25 22 21 19 13 7 3 0 356 348 339 336 337 335 335 337 339 342 346 350 347 344 344 343 342 341
95 84 77 71 65 60 56 54 52 49 47 46 44 41 39 38 37 35 32 31 30 28 26 24 23 24 25 23 21 22 22 22 25 27 28 26 28 26 20 16 15 13 11 9
104 90 81 73 67 61 58 55 54 52 49 47 45 43 42 41 40 37 36 36 36 36 37 38 39 41 42 44 46 48 48 51 54 54 53 50 49 48 47 45 43 40 36 34
111 97 85 76 68 62 59 57 55 53 51 48 46 45 44 44 42 41 41 40 41 42 43 45 46 47 49 51 53 53 56 59 61 63 63 61 59 59 56 53 51 49 47 45
118 103 89 79 71 65 61 58 56 54 52 50 48 47 47 46 46 45 45 45 45 46 47 47 48 49 51 54 55 57 60 63 65 65 64 62 63 64 62 60 58 56 53 49
125 109 94 83 74 67 63 59 57 55 53 51 49 48 47 47 47 46 47 47 48 49 49 48 49 50 52 54 56 57 59 62 63 64 64 64 65 65 64 61 58 55 51 49
134 118 101 87 76 67 62 59 56 55 52 51 49 48 47 47 47 47 47 48 49 49 49 49 51 52 54 56 58 59 60 61 62 63 63 63 64 63 61 59 56 53 52 51
143 129 111 94 79 69 62 58 55 54 52 50 48 47 47 47 47 47 47 47 48 49 49 49 51 53 55 56 58 59 60 61 61 61 61 61 61 61 59 58 56 55 54 52
154 141 122 102 85 72 63 57 54 52 50 48 47 46 45 45 46 45 45 46 48 49 49 49 51 53 54 55 56 57 58 58 58 58 59 59 58 57 56 56 55 54 52 50
165 154 136 114 92 75 63 55 51 48 46 45 44 43 42 43 43 43 43 43 44 46 47 48 49 51 52 53 54 54 55 55 56 56 56 56 56 56 55 54 52 51 49 48
175 167 153 131 102 78 62 53 47 43 41 40 40 39 38 38 39 39 39 39 40 41 42 43 45 46 48 49 49 49 50 50 51 51 51 52 53 53 53 52 50 48 46 44
183 179 173 160 130 87 59 47 42 38 35 33 33 32 32 32 33 33 34 34 35 36 37 38 39 40 41 42 43 44 44 45 46 47 47 46 46 46 46 45 43 41 40 38
193 191 189 186 179 138 48 33 29 26 24 23 23 23 23 24 25 25 26 26 27 28 29 30 31 32 33 34 36 36 36 37 38 38 38 38 37 36 37 37 36 34 33 33
Height
5727 5726 5726 5726 5727 5727 5728 5728 5729 5730 5730 5730 5730 5730 5730 5730 5731 5731 5731 5731 5732 5733 5734 5735 5737 5738 5740 5740 5741 5742 5743 5743 5744 5744 5744 5745 5745 5745 5744 5743 5742 5742 5741 5739
5726 5725 5725 5725 5725 5725 5725 5725 5725 5726 5727 5726 5726 5726 5726 5726 5726 5727 5727 5727 5728 5729 5729 5730 5731 5732 5733 5734 5735 5735 5736 5736 5737 5737 5737 5736 5736 5736 5735 5734 5734 5733 5731 5730
5726 5725 5725 5725 5724 5724 5723 5723 5723 5723 5724 5723 5722 5722 5722 5722 5722 5723 5723 5723 5724 5724 5725 5725 5726 5726 5727 5728 5728 5728 5729 5729 5729 5729 5729 5728 5728 5727 5726 5726 5725 5723 5722 5721
5725 5725 5724 5726 5723 5722 5722 5721 5720 5720 5720 5719 5719 5719 5719 5719 5719 5719 5719 5719 5719 5720 5720 5720 5721 5721 5721 5722 5722 5722 5722 5722 5722 5722 5721 5721 5720 5719 5718 5718 5717 5716 5714 5712
5725 5724 5724 5724 5722 5721 5720 5719 5718 5717 5716 5716 5716 5715 5715 5715 5715 5715 5715 5715 5715 5715 5715 5715 5716 5716 5716 5716 5716 5716 5716 5716 5715 5715 5714 5714 5713 5712 5712 5711 5709 5708 5707 5705
5724 5723 5723 5724 5721 5719 5719 5717 5716 5714 5713 5713 5713 5713 5713 5712 5711 5711 5710 5710 5710 5710 5710 5710 5710 5711 5711 5711 5710 5710 5710 5710 5709 5709 5708 5707 5707 5706 5705 5704 5702 5701 5699 5698
5724 5723 5722 5722 5720 5719 5719 5718 5714 5712 5711 5710 5710 5710 5709 5708 5707 5707 5707 5707 5706 5706 5706 5706 5705 5705 5705 5705 5705 5704 5704 5704 5704 5703 5702 5702 5701 5700 5699 5697 5696 5694 5693 5691
5723 5722 5724 5720 5719 5718 5717 5714 5712 5711 5709 5708 5707 5706 5705 5705 5704 5704 5703 5703 5702 5702 5702 5701 5701 5701 5700 5700 5699 5699 5699 5698 5698 5697 5697 5696 5695 5694 5693 5692 5691 5689 5687 5686
5724 5724 5722 5720 5718 5717 5715 5713 5711 5710 5708 5707 5706 5704 5704 5703 5702 5701 5701 5700 5699 5699 5698 5698 5697 5697 5696 5696 5695 5694 5694 5693 5692 5692 5691 5690 5689 5689 5688 5687 5685 5684 5683 5682
5723 5722 5721 5719 5718 5716 5715 5713 5711 5709 5708 5706 5705 5704 5702 5701 5700 5699 5698 5697 5697 5696 5695 5694 5694 5693 5692 5691 5690 5689 5689 5688 5688 5687 5686 5685 5684 5684 5683 5682 5681 5680 5679 5678
5723 5722 5721 5720 5718 5716 5715 5713 5711 5709 5708 5706 5705 5703 5702 5700 5699 5698 5697 5695 5694 5693 5692 5691 5690 5689 5688 5687 5686 5685 5684 5683 5683 5682 5681 5680 5680 5679 5678 5677 5677 5676 5675 5674
5724 5723 5722 5721 5719 5718 5716 5714 5712 5710 5709 5707 5705 5704 5702 5700 5699 5697 5696 5694 5692 5691 5690 5688 5687 5685 5684 5683 5681 5680 5679 5679 5678 5677 5677 5676 5675 5675 5674 5674 5673 5672 5672 5671
5726 5724 5723 5722 5721 5719 5718 5716 5714 5712 5710 5708 5706 5704 5702 5701 5699 5697 5695 5693 5691 5689 5687 5686 5684 5682 5680 5679 5678 5677 5676 5675 5674 5674 5673 5672 5672 5672 5671 5671 5670 5670 5669 5668
5727 5726 5725 5724 5723 5721 5720 5718 5716 5714 5712 5710 5708 5706 5703 5701 5699 5697 5695 5692 5690 5688 5686 5684 5682 5680 5678 5676 5675 5674 5673 5672 5672 5671 5671 5670 5670 5670 5669 5669 5668 5668 5667 5667
5728 5728 5727 5726 5725 5723 5722 5720 5718 5716 5714 5712 5709 5707 5705 5702 5700 5698 5695 5693 5690 5688 5685 5683 5681 5678 5676 5674 5673 5672 5671 5671 5670 5670 5670 5669 5669 5669 5668 5668 5668 5667 5667 5666
5730 5730 5729 5728 5727 5725 5724 5722 5720 5718 5716 5714 5712 5709 5707 5704 5701 5699 5696 5694 5691 5688 5686 5683 5681 5678 5676 5674 5672 5671 5671 5670 5670 5669 5669 5669 5669 5669 5668 5668 5667 5667 5666 5666
5731 5731 5731 5730 5729 5728 5726 5724 5723 5721 5719 5716 5714 5711 5709 5706 5703 5701 5698 5695 5693 5690 5687 5685 5682 5680 5677 5675 5674 5673 5672 5671 5670 5670 5670 5670 5669 5669 5669 5669 5668 5668 5667 5666
5733 5733 5733 5732 5731 5730 5728 5727 5725 5723 5721 5719 5717 5714 5711 5709 5706 5703 5700 5698 5695 5692 5690 5687 5685 5683 5681 5678 5677 5675 5674 5673 5672 5672 5671 5671 5671 5671 5670 5670 5670 5669 5668 5668
5734 5734 5734 5734 5733 5732 5731 5729 5728 5726 5724 5722 5720 5717 5715 5712 5709 5706 5703 5701 5698 5695 5693 5691 5688 5686 5684 5682 5680 5678 5677 5676 5675 5674 5674 5674 5673 5673 5672 5672 5671 5671 5670 5669
5735 5736 5736 5736 5735 5734 5733 5732 5730 5729 5727 5725 5723 5720 5718 5715 5712 5710 5707 5704 5702 5699 5697 5694 5692 5690 5688 5686 5684 5682 5681 5679 5678 5678 5677 5677 5676 5676 5675 5674 5674 5673 5672 5671
5736 5737 5737 5737 5737 5736 5735 5734 5733 5731 5730 5728 5726 5724 5721 5719 5716 5713 5710 5708 5705 5703 5701 5698 5696 5694 5691 5690 5688 5686 5685 5683 5682 5681 5681 5680 5679 5678 5678 5677 5676 5675 5674 5673
5736 5738 5738 5739 5739 5738 5738 5737 5735 5734 5732 5730 5729 5727 5724 5722 5719 5717 5714 5712 5709 5707 5704 5702 5700 5698 5696 5694 5692 5690 5689 5688 5686 5685 5684 5683 5682 5682 5681 5680 5679 5678 5677 5676
5737 5738 5739 5740 5740 5740 5739 5738 5737 5736 5735 5733 5731 5729 5727 5725 5722 5720 5718 5716 5713 5711 5708 5706 5704 5702 5700 5698 5696 5695 5693 5692 5691 5689 5688 5687 5686 5685 5684 5683 5682 5680 5679 5678
5736 5738 5739 5740 5741 5741 5740 5740 5739 5738 5737 5735 5734 5732 5730 5728 5726 5723 5721 5719 5717 5715 5712 5710 5708 5706 5704 5703 5701 5699 5697 5696 5695 5693 5692 5691 5689 5688 5687 5686 5684 5683 5682 5681
5735 5737 5739 5740 5741 5741 5741 5741 5740 5739 5738 5737 5736 5734 5732 5730 5728 5726 5724 5722 5720 5718 5716 5714 5712 5710 5708 5706 5705 5703 5701 5700 5698 5697 5695 5694 5692 5691 5690 5688 5687 5686 5684 5683
5734 5737 5738 5740 5741 5741 5741 5741 5741 5740 5739 5738 5737 5735 5734 5732 5730 5728 5727 5725 5723 5721 5719 5717 5715 5713 5711 5710 5708 5706 5704 5703 5701 5700 5698 5697 5695 5694 5692 5691 5689 5688 5687 5685
5733 5735 5737 5739 5740 5741 5741 5741 5741 5740 5740 5739 5738 5736 5735 5733 5731 5730 5728 5726 5725 5723 5721 5719 5717 5716 5714 5712 5710 5709 5707 5705 5704 5702 5701 5699 5698 5696 5694 5693 5691 5690 5688 5687